Regional Weather Roundup
Issued by NWS Kansas City/Pleasant Hill, MO

Home | Current Version | Previous Version | Text Only | Print | Product List | Glossary On
Versions: 1 2 3 4 5 6 7 8 9 10 11 12 13 14 15 16 17 18 19 20 21 22 23 24 25 26 27 28 29 30 31 32 33 34 35 36 37 38 39 40 41 42 43 44 45 46 47 48 49 50
000
ASUS43 KEAX 302310
RWREAX

WEATHER ROUNDUP FOR EASTERN KANSAS AND NORTHWEST MISSOURI
NATIONAL WEATHER SERVICE KANSAS CITY/PLEASANT HILL MO
500 PM CST FRI JAN 30 2015

KSZ040-057-103>105-MOZ028-029-037-043-310000-
...KANSAS CITY METROPOLITAN AREA...

CITY           SKY/WX    TMP DP  RH WIND       PRES   REMARKS
K.C. INTL      CLOUDY    37  19  48 SE5       30.41F WCI  33
K.C. DOWNTOWN  CLOUDY    40  17  39 E7        30.41F
LEES SUMMIT    MOCLDY    39  18  42 S5        30.42F
OLATHE - IXD   CLOUDY    37  23  56 S6        30.42F WCI  32
OLATHE - OJC   CLOUDY    38  21  50 S6        30.41F WCI  33
LAWRENCE       CLOUDY    39  22  50 S7        30.42F WCI  34

$$

MOZ001>008-011>017-020>025-030>033-038>040-044>046-053-054-310000-
...NORTHERN AND CENTRAL MISSOURI...

CITY           SKY/WX    TMP DP  RH WIND       PRES   REMARKS
ST. JOSEPH     MOCLDY    36  20  52 S7        30.41F WCI  30
MOSBY          MOCLDY    36  19  51 CALM      30.43F
WARRENSBURG    MOCLDY    36  18  48 CALM      30.44F
WHITEMAN AFB   CLOUDY    37  19  49 E1        30.43F
CLINTON        MOCLDY    39  19  45 MISG      30.45S
SEDALIA        MOCLDY    38  19  46 CALM      30.44F
WARSAW         NOT AVBL
MARSHALL       MOCLDY    39  21  48 CALM      30.46F
CHILLICOTHE      N/A     35  17  47 S3        30.44F
MOBERLY        PTCLDY    36  18  48 W3        30.44F
KIRKSVILLE     PTCLDY    33  18  53 S3        30.43F

$$

MOZ041-047>049-056>058-063>065-088>090-097-310000-
...EASTERN AND SOUTHERN MISSOURI...

CITY           SKY/WX    TMP DP  RH WIND       PRES   REMARKS
ST. LOUIS INTL MOCLDY    37  18  46 NW5       30.46F WCI  33
SPIRIT OF STL  PTCLDY    34  20  56 CALM      30.45F
COLUMBIA       MOCLDY    36  18  48 W5        30.43F WCI  32
JEFFERSON CITY MOCLDY    39  15  37 CALM      30.45F
MEXICO         PTCLDY    37  25  60 CALM      30.44F
HANNIBAL       CLEAR     34  18  51 CALM      30.45F
ROLLA          PTCLDY    38  18  44 CALM      30.41F
LEBANON        MOCLDY    41  14  33 CALM      30.42F
OSAGE BEACH    MOCLDY    41  16  36 SW5       30.44F
SPRINGFIELD    PTCLDY    46  13  26 CALM      30.40F
BRANSON        MOCLDY    46  16  29 E5        30.42S
NEVADA         CLOUDY    39  25  56 CALM      30.43S
JOPLIN         MOCLDY    45  23  42 CALM      30.42F
WEST PLAINS    CLOUDY    46  14  27 E3        30.42F

$$

IAZ060-094-KSZ022-034>040-054-083-096-NEZ052-066-093-310000-
...KANSAS...SOUTHEAST NEBRASKA AND IOWA...

CITY           SKY/WX    TMP DP  RH WIND       PRES   REMARKS
TOPEKA         CLOUDY    41  21  44 S7        30.41F
MANHATTAN      CLOUDY    42  25  50 S7        30.37F
EMPORIA        CLOUDY    40  23  50 S7        30.39F
CHANUTE        CLOUDY    42  23  46 SE5       30.42F
WICHITA        CLOUDY    42  25  50 S7        30.39F
OMAHA          MOCLDY    35  24  64 SE12      30.34F WCI  27
LINCOLN        CLOUDY    40  26  57 S13       30.33F WCI  32
FALLS CITY     CLOUDY    38  23  55 S8        30.38F WCI  32
LAMONI         CLEAR     33  13  43 S6        30.39F WCI  28
DES MOINES     MOCLDY    35  13  40 S8        30.39F WCI  29

$$



USA.gov is the U.S. government's official web portal to all federal, state and local government web resources and services.